星链-36291(STARLINK-36291)

导读 | 豆包AI

STARLINK-36291是美国太空探索技术公司SpaceX星链星座的卫星,于2025年12月17日发射,属于星链互联网卫星星座组网卫星,用于为全球提供低延迟、高速率的卫星宽带互联网服务,依托低轨轨道部署,可覆盖偏远地区等传统网络难以覆盖的区域,星链系统在民用通信外也可支持特殊场景的通信需求。

基本信息
目录编号:
67195
目录名称:
STARLINK-36291
国际标识:
2025-304D
轨道中心:
EARTH
卫星名称:
星链-36291
卫星全名:
星链-36291(STARLINK-36291)
卫星状态:
在轨 (已飞行87 天)
发射日期:
2025-12-17 UTC
国别 :
美国 (US)
星等 :
--
轨道信息
数据来源 国际轨道数据
星历时间: 2026-03-13T22:00:01+0800
13小时前
查看轨道信息
半长轴: 6950.215km
偏心率: 0.0003817
轨道倾角: 70.001°
近地点辐角 278.013°
升交点赤经 164.845°
平近点角 51.576°
近地点: 569.425km
远地点: 574.731km
周期: 96.107分钟
每日圈数: 14.98323
详细信息
固有亮度:
5
最大亮度:
2.5
卫星平台:
Starlink V1.0
覆盖范围:
全球
运营商:
太空探索技术公司
运营商所在国:
美国
制造商(研发单位):
太空探索技术公司
制造商所在国:
美国
使用方式:
暂无
卫星简介
Starlink 计划是 SpaceX 推出的全球卫星互联网项目,通过发射低轨道卫星,为全球尤其是偏远地区提供高速、低延迟的互联网服务。自 2019 年起,Starlink 已部署数千颗卫星,旨在缩小全球数字鸿沟,推动互联网普及。该项目还为军事、航空等行业提供通信支持,带来广泛经济效益。
2D轨道图
3D轨道图
轨道高度分析图
轨道倾角分析图
轨道综合分析图
查看轨道综合分析图